This is the latest recevied weather packets stored in our database for station/object N9OJR. If no packets are shown the sender has not sent any weather packets the latest 10 day(s).
| Time | Temp. | Humidity | Pressure | Rain* | Wind** | Luminosity | Snow |
|---|---|---|---|---|---|---|---|
| 1778163500 | 12.78° C | 59% | 1009.3 hPa | 0 mm | - | 714 W/m² | - |
| 1778163197 | 12.22° C | 57% | 1009.4 hPa | 0 mm | - | 696 W/m² | - |
| 1778162893 | 12.22° C | 61% | 1009.5 hPa | 0 mm | - | 642 W/m² | - |
| 1778162590 | 11.67° C | 61% | 1009.5 hPa | 0 mm | - | 600 W/m² | - |
| 1778162288 | 12.22° C | 63% | 1009.5 hPa | 0 mm | - | 573 W/m² | - |
| 1778161985 | 11.67° C | 63% | 1009.8 hPa | 0 mm | - | 612 W/m² | - |
| 1778161681 | 11.67° C | 63% | 1009.7 hPa | 0 mm | - | 477 W/m² | - |
| 1778161378 | 11.67° C | 64% | 1009.7 hPa | 0 mm | - | 515 W/m² | - |
| 1778161074 | 10.56° C | 67% | 1009.8 hPa | 0 mm | - | 561 W/m² | - |
| 1778160770 | 10° C | 70% | 1009.9 hPa | 0 mm | - | 412 W/m² | - |
| 1778160468 | 10° C | 72% | 1009.9 hPa | 0 mm | - | 276 W/m² | - |
| 1778160165 | 10° C | 73% | 1009.8 hPa | 0 mm | - | 308 W/m² | - |
| 1778159862 | 10° C | 74% | 1009.9 hPa | 0 mm | - | 359 W/m² | - |
| 1778159559 | 10° C | 73% | 1009.6 hPa | 0 mm | - | 259 W/m² | - |
| 1778159255 | 10° C | 76% | 1009.8 hPa | 0 mm | - | 359 W/m² | - |
| 1778158953 | 9.44° C | 75% | 1009.6 hPa | 0 mm | - | 350 W/m² | - |
| 1778158651 | 9.44° C | 77% | 1009.8 hPa | 0 mm | - | 332 W/m² | - |
| 1778158349 | 9.44° C | 77% | 1009.7 hPa | 0 mm | - | 364 W/m² | - |
| 1778158045 | 8.89° C | 78% | 1009.7 hPa | 0 mm | - | 340 W/m² | - |
| 1778157742 | 8.33° C | 80% | 1009.8 hPa | 0 mm | - | 317 W/m² | - |
| 1778157441 | 8.33° C | 81% | 1009.7 hPa | 0 mm | - | 306 W/m² | - |
| 1778157138 | 7.78° C | 82% | 1009.7 hPa | 0 mm | - | 319 W/m² | - |
| 1778156833 | 7.78° C | 84% | 1009.6 hPa | 0 mm | - | 285 W/m² | - |
| 1778156529 | 6.67° C | 89% | 1009.6 hPa | 0 mm | - | 418 W/m² | - |
| 1778156225 | 6.11° C | 94% | 1009.8 hPa | 0 mm | - | 157 W/m² | - |
* Rain latest hour (hover to see other rain measurements)
** Current wind speed in m/s (hover to see current wind gust speed)